This is the latest recevied weather packets stored in our database for station/object KD0JCP-10. If no packets are shown the sender has not sent any weather packets the latest 10 day(s).
| Time | Temp. | Humidity | Pressure | Rain* | Wind** | Luminosity | Snow |
|---|---|---|---|---|---|---|---|
| 1777839978 | 23.89° C | 26% | 1010.6 hPa | 0 mm | - | - | - |
| 1777839678 | 23.89° C | 26% | 1010.8 hPa | 0 mm | - | - | - |
| 1777839378 | 23.89° C | 28% | 1010.9 hPa | 0 mm | - | - | - |
| 1777839078 | 23.89° C | 27% | 1011 hPa | 0 mm | - | - | - |
| 1777838778 | 23.89° C | 28% | 1011.1 hPa | 0 mm | - | - | - |
| 1777835178 | 23.89° C | 27% | 1011.5 hPa | 0 mm | - | - | - |
| 1777834278 | 23.33° C | 27% | 1011.6 hPa | 0 mm | - | - | - |
| 1777833378 | 23.33° C | 26% | 1011.9 hPa | 0 mm | - | - | - |
| 1777833079 | 23.33° C | 29% | 1012.1 hPa | 0 mm | - | - | - |
| 1777831878 | 23.33° C | 27% | 1012.3 hPa | 0 mm | - | - | - |
| 1777831579 | 23.33° C | 28% | 1012.4 hPa | 0 mm | - | - | - |
| 1777831278 | 23.33° C | 28% | 1012.6 hPa | 0 mm | - | - | - |
| 1777829479 | 22.22° C | 29% | 1013 hPa | 0 mm | - | - | - |
| 1777829179 | 22.22° C | 29% | 1013.1 hPa | 0 mm | - | - | - |
| 1777828879 | 22.22° C | 29% | 1013.2 hPa | 0 mm | - | - | - |
| 1777828579 | 21.67° C | 30% | 1013.2 hPa | 0 mm | - | - | - |
| 1777828279 | 21.67° C | 31% | 1013.3 hPa | 0 mm | - | - | - |
| 1777827979 | 21.67° C | 30% | 1013.4 hPa | 0 mm | - | - | - |
| 1777827679 | 21.67° C | 31% | 1013.4 hPa | 0 mm | - | - | - |
| 1777827379 | 21.11° C | 31% | 1013.4 hPa | 0 mm | - | - | - |
| 1777827079 | 21.67° C | 30% | 1013.4 hPa | 0 mm | - | - | - |
| 1777826779 | 21.67° C | 34% | 1013.4 hPa | 0 mm | - | - | - |
| 1777826479 | 21.67° C | 30% | 1013.5 hPa | 0 mm | - | - | - |
| 1777826179 | 21.67° C | 32% | 1013.5 hPa | 0 mm | - | - | - |
| 1777825879 | 21.11° C | 32% | 1013.6 hPa | 0 mm | - | - | - |
* Rain latest hour (hover to see other rain measurements)
** Current wind speed in m/s (hover to see current wind gust speed)